Marianna, FL

11:37 PM CDT on June 24, 2017 (GMT -0500)
Marianna Municipal

Weather History for KMAI - April, 2013

Change the Weather History Date:

Wednesday, April 24, 2013

  Actual Average Record
Temperature  
Mean Temperature 70 °F 69 °F  
Max Temperature 84 °F 82 °F 93 °F (1999)
Min Temperature 56 °F 56 °F 41 °F (2012)
Degree Days  
Heating Degree Days 0    
Month to date heating degree days 47  
Since 1 July heating degree days 1356  
Cooling Degree Days 5    
Month to date cooling degree days 73  
Year to date cooling degree days 144  
Growing Degree Days 18 (Base 50)    
Moisture  
Dew Point 61 °F    
Average Humidity 74    
Maximum Humidity 100    
Minimum Humidity 47    
Precipitation  
Precipitation 0.00 in 0.09 in 0.01 in (1998)
Month to date precipitation 2.90 3.35  
Year to date precipitation 19.75 18.87  
Sea Level Pressure  
Sea Level Pressure 30.11 in    
Wind  
Wind Speed 6 mph (SW)    
Max Wind Speed 16 mph    
Max Gust Speed 20 mph    
Visibility 10 miles    
Events      
T = Trace of Precipitation, MM = Missing Value Source: NWS Daily Summary

Daily Weather History Graph

Daily Weather History Graph

Search for Another Location

Airport or City:

Trip Planner

Search our weather history database for the weather conditions in past years. The results will help you decide how hot, cold, wet, or windy it might be!

Date:

Astronomy

Apr. 24, 2013 Rise Set
Actual Time 6:03 AM CDT 7:14 PM CDT
Civil Twilight 5:37 AM CDT 7:40 PM CDT
Nautical Twilight 5:07 AM CDT 8:10 PM CDT
Astronomical Twilight 4:37 AM CDT 8:41 PM CDT
Moon 6:19 PM CDT (4/24) 5:01 AM CDT (4/24)
Length of Visible Light 14h 02m
Length of Day
13h 11m
Waxing Gibbous, 98% of the Moon is Illuminated
Apr 24
Waxing Gibbous
Apr 25
Full
May 2
Last Quarter
May 9
New
May 17
First Quarter

Hourly Weather History & Observations

Time (CDT) Temp. Heat Index Dew Point Humidity Pressure Visibility Wind Dir Wind Speed Gust Speed Precip Events Conditions
12:53 AM 59.0 °F - 57.0 °F 93% 30.09 in 10.0 mi Calm Calm - N/A   Clear
1:53 AM 59.0 °F - 57.0 °F 93% 30.08 in 10.0 mi Calm Calm - N/A   Clear
2:53 AM 60.1 °F - 57.9 °F 93% 30.08 in 10.0 mi Calm Calm - N/A   Clear
3:53 AM 60.1 °F - 57.0 °F 90% 30.08 in 10.0 mi Calm Calm - N/A   Clear
5:53 AM 55.9 °F - 54.0 °F 93% 30.10 in 10.0 mi Calm Calm - N/A   Clear
6:53 AM 57.9 °F - 55.9 °F 93% 30.13 in 10.0 mi Calm Calm - N/A   Clear
7:53 AM 63.0 °F - 57.9 °F 84% 30.13 in 10.0 mi SE 6.9 mph - N/A   Clear
8:53 AM 69.1 °F - 61.0 °F 75% 30.13 in 10.0 mi SSE 9.2 mph - N/A   Clear
9:53 AM 73.9 °F - 61.0 °F 64% 30.15 in 10.0 mi SW 9.2 mph 18.4 mph N/A   Partly Cloudy
10:10 AM 73.4 °F - 62.6 °F 69% 30.17 in 10.0 mi SSW 9.2 mph - N/A   Mostly Cloudy
10:45 AM 75.2 °F - 64.4 °F 69% 30.16 in 10.0 mi SW 11.5 mph - N/A   Mostly Cloudy
10:53 AM 75.0 °F - 63.0 °F 66% 30.16 in 10.0 mi SW 10.4 mph - N/A   Mostly Cloudy
11:20 AM 75.2 °F - 62.6 °F 65% 30.16 in 10.0 mi SSW 11.5 mph 17.3 mph N/A   Mostly Cloudy
11:53 AM 77.0 °F - 63.0 °F 62% 30.14 in 10.0 mi SSW 12.7 mph - N/A   Mostly Cloudy
12:53 PM 80.1 °F 81.2 °F 62.1 °F 54% 30.11 in 10.0 mi SW 12.7 mph 18.4 mph N/A   Scattered Clouds
1:53 PM 82.9 °F 83.2 °F 60.1 °F 46% 30.07 in 10.0 mi South 12.7 mph 18.4 mph N/A   Partly Cloudy
2:53 PM 82.0 °F 82.7 °F 61.0 °F 49% 30.10 in 10.0 mi West 11.5 mph - N/A   Scattered Clouds
3:53 PM 81.0 °F 81.9 °F 62.1 °F 52% 30.07 in 10.0 mi WSW 9.2 mph - N/A   Clear
4:53 PM 80.1 °F 81.5 °F 63.0 °F 56% 30.09 in 10.0 mi West 11.5 mph - N/A   Mostly Cloudy
6:53 PM 73.9 °F - 64.9 °F 73% 30.08 in 10.0 mi SW 9.2 mph - N/A   Partly Cloudy
7:53 PM 73.0 °F - 64.9 °F 76% 30.09 in 10.0 mi WSW 4.6 mph - N/A   Partly Cloudy
8:53 PM 70.0 °F - 64.9 °F 84% 30.10 in 10.0 mi SW 3.5 mph - N/A   Clear
9:53 PM 69.1 °F - 64.9 °F 87% 30.13 in 10.0 mi Calm Calm - N/A   Clear
10:53 PM 68.0 °F - 64.9 °F 90% 30.13 in 10.0 mi Calm Calm - N/A   Clear
11:53 PM 64.9 °F - 64.0 °F 97% 30.14 in 7.0 mi Calm Calm - N/A   Clear